PDT,Max TemperatureF,Mean TemperatureF,Min TemperatureF,Max Dew PointF,MeanDew PointF,Min DewpointF,Max Humidity, Mean Humidity, Min Humidity, Max Sea Level PressureIn, Mean Sea Level PressureIn, Min Sea Level PressureIn, Max VisibilityMiles, Mean VisibilityMiles, Min VisibilityMiles, Max Wind SpeedMPH, Mean Wind SpeedMPH, Max Gust SpeedMPH,PrecipitationIn, CloudCover, Events, WindDirDegrees
2012-9-1,97,76,57,59,45,24,89,47,8,29.95,29.91,29.87,10,8,4,15,3,20,0.00,0,,249
2012-9-2,97,74,51,54,45,34,83,43,11,29.94,29.90,29.85,10,8,4,14,3,,0.00,1,,272
2012-9-3,100,78,57,55,49,36,78,45,11,29.98,29.93,29.88,10,8,4,15,2,,0.00,1,,279
2012-9-4,100,81,62,59,49,33,84,43,10,30.00,29.95,29.88,10,8,4,15,3,17,0.00,2,,264
2012-9-5,91,78,66,60,52,39,73,47,21,29.99,29.95,29.90,10,8,4,12,2,,0.00,4,Rain,291
2012-9-6,93,78,62,58,55,48,75,49,26,30.00,29.95,29.90,10,9,4,16,4,22,0.00,0,,273
2012-9-7,93,76,62,62,58,53,83,57,35,30.03,29.98,29.92,10,8,2,15,2,18,0.00,1,,258
2012-9-8,97,80,63,62,59,57,84,54,27,29.95,29.90,29.81,10,8,5,16,3,22,0.00,2,,252
2012-9-9,102,83,64,65,62,59,87,56,28,29.93,29.85,29.77,10,8,4,17,4,22,0.00,2,,261
2012-9-10,95,81,69,66,64,62,84,60,36,29.90,29.86,29.82,10,7,4,17,6,16,0.00,2,,271
2012-9-11,88,78,68,67,65,64,87,73,49,30.00,29.92,29.86,10,7,4,17,5,23,0.00,3,,248
2012-9-12,95,80,66,66,64,62,87,67,37,30.04,29.98,29.90,7,6,4,16,5,,0.00,4,,260
2012-9-13,102,80,60,65,60,55,100,65,22,30.04,29.98,29.88,10,6,2,13,2,,0.00,0,,270
2012-9-14,107,83,59,62,50,33,87,46,8,30.02,29.97,29.89,10,7,2,13,2,16,0.00,0,,327
2012-9-15,106,84,63,55,45,30,70,35,8,30.02,29.97,29.90,10,8,4,16,3,,0.00,0,,247
2012-9-16,95,78,60,61,55,48,81,50,24,30.04,29.98,29.93,10,8,4,15,3,,0.00,0,,269
2012-9-17,91,76,62,64,60,50,97,72,29,30.05,30.00,29.92,10,5,0,15,2,21,0.00,2,Fog,257
2012-9-18,95,75,57,60,56,44,100,68,27,30.02,29.98,29.91,10,6,0,16,2,,0.00,0,Fog,263
2012-9-19,98,78,57,56,51,45,83,50,21,29.99,29.94,29.87,10,8,4,15,2,,0.00,0,,283
2012-9-20,102,80,57,57,54,49,87,50,19,29.95,29.90,29.84,10,8,5,14,3,,0.00,1,,274
2012-9-21,102,80,59,61,57,49,94,59,17,29.94,29.89,29.81,10,8,2,17,2,18,0.00,2,,269
2012-9-22,100,80,62,62,58,51,88,54,21,29.94,29.90,29.85,10,6,2,15,2,,0.00,3,,241
2012-9-23,102,83,64,60,53,44,81,47,14,29.97,29.92,29.89,10,8,3,14,2,,0.00,2,,251
2012-9-24,93,76,62,56,52,46,78,48,21,29.99,29.93,29.88,10,8,4,16,5,22,0.00,0,,261
2012-9-25,86,68,53,58,55,50,94,67,30,29.93,29.89,29.82,10,7,2,15,3,20,0.00,0,,260
2012-9-26,88,70,55,59,57,55,100,80,38,29.92,29.88,29.79,10,4,0,18,2,24,0.00,2,Fog,267
2012-9-27,93,74,57,59,57,51,94,68,25,29.93,29.89,29.83,10,6,1,16,2,22,0.00,1,,280
2012-9-28,95,76,60,61,54,41,94,60,17,29.94,29.90,29.82,10,7,2,15,2,,0.00,2,,256
2012-9-29,96,78,60,56,51,41,83,49,18,29.97,29.93,29.87,10,8,3,15,2,,0.00,2,,261
2012-9-30,104,80,59,56,50,37,78,42,10,29.99,29.93,29.87,10,8,3,16,2,,0.00,0,,256